SAS46M EKCH-ESSA

Flight info

Callsign SAS46M
Flight time 0h 50m
Altitude 37000
Route KEMAX N851 ROXEN DCT MIKNA N851 PELUP Z226 NILUG
Aircraft A320/M-SDE3FGHIRWY/LB1

Departure

Time 2026-05-06 06:08
Airport Copenhagen Kastrup Airport (EKCH)

Arrival

Time 2026-05-06 06:58
Airport Stockholm-Arlanda Airport (ESSA)
Time Latitude Longitude Altitude Speed Heading
2026-05-06 05:36 55.62731 12.65182 17 ft 0 kts 356°
2026-05-06 05:58 55.62707 12.65185 19 ft 3 kts 356°
2026-05-06 05:58 55.62687 12.65187 18 ft 4 kts 351°
2026-05-06 05:58 55.62668 12.65203 20 ft 4 kts 308°
2026-05-06 05:59 55.62655 12.65243 19 ft 4 kts 287°
2026-05-06 05:59 55.62649 12.65282 20 ft 4 kts 295°
2026-05-06 05:59 55.62633 12.65315 21 ft 4 kts 339°
2026-05-06 05:59 55.62610 12.65321 20 ft 4 kts 359°
2026-05-06 06:00 55.62596 12.65322 17 ft 0 kts 359°
2026-05-06 06:02 55.62607 12.65322 19 ft 4 kts 359°
2026-05-06 06:02 55.62645 12.65293 18 ft 8 kts 311°
2026-05-06 06:02 55.62626 12.65204 17 ft 10 kts 206°
2026-05-06 06:03 55.62551 12.65197 17 ft 12 kts 179°
2026-05-06 06:03 55.62461 12.65200 18 ft 14 kts 179°
2026-05-06 06:03 55.62355 12.65204 17 ft 16 kts 179°
2026-05-06 06:03 55.62234 12.65190 17 ft 19 kts 191°
2026-05-06 06:04 55.62116 12.65075 18 ft 21 kts 214°
2026-05-06 06:04 55.61992 12.64931 18 ft 23 kts 213°
2026-05-06 06:04 55.61848 12.64766 19 ft 26 kts 213°
2026-05-06 06:04 55.61691 12.64585 19 ft 28 kts 213°
2026-05-06 06:05 55.61520 12.64388 17 ft 30 kts 213°
2026-05-06 06:05 55.61339 12.64180 18 ft 30 kts 213°
2026-05-06 06:05 55.61178 12.63996 17 ft 26 kts 213°
2026-05-06 06:05 55.61018 12.63811 19 ft 29 kts 213°
2026-05-06 06:06 55.60883 12.63656 18 ft 18 kts 213°
2026-05-06 06:06 55.60790 12.63596 18 ft 14 kts 161°
2026-05-06 06:06 55.60719 12.63725 17 ft 16 kts 130°
2026-05-06 06:06 55.60677 12.63864 19 ft 10 kts 78°
2026-05-06 06:07 55.60730 12.63955 19 ft 20 kts 41°
2026-05-06 06:07 55.61022 12.64408 16 ft 89 kts 41°
2026-05-06 06:07 55.61632 12.65350 16 ft 141 kts 41°
2026-05-06 06:07 55.62419 12.66564 392 ft 152 kts 39°
2026-05-06 06:08 55.63222 12.67806 1027 ft 155 kts 41°
2026-05-06 06:08 55.64059 12.69096 1531 ft 166 kts 41°
2026-05-06 06:08 55.64986 12.70531 1846 ft 188 kts 42°
2026-05-06 06:08 55.66020 12.72103 2175 ft 209 kts 41°
2026-05-06 06:09 55.67195 12.73856 2562 ft 233 kts 40°
2026-05-06 06:09 55.68473 12.75760 3288 ft 244 kts 40°
2026-05-06 06:09 55.69788 12.77725 4167 ft 250 kts 40°
2026-05-06 06:09 55.71129 12.79732 5074 ft 254 kts 40°
2026-05-06 06:10 55.72489 12.81768 5949 ft 259 kts 39°
2026-05-06 06:10 55.73929 12.83916 6388 ft 282 kts 39°
2026-05-06 06:10 55.75476 12.86260 6803 ft 301 kts 40°
2026-05-06 06:10 55.77072 12.88746 7472 ft 309 kts 40°
2026-05-06 06:11 55.78698 12.91316 8171 ft 316 kts 40°
2026-05-06 06:11 55.80358 12.93951 8846 ft 324 kts 40°
2026-05-06 06:11 55.82055 12.96641 9562 ft 330 kts 40°
2026-05-06 06:11 55.83789 12.99384 10247 ft 336 kts 40°
2026-05-06 06:12 55.85529 13.02136 10892 ft 341 kts 40°
2026-05-06 06:12 55.87318 13.04964 11590 ft 345 kts 40°
2026-05-06 06:12 55.89125 13.07823 12269 ft 350 kts 40°
2026-05-06 06:12 55.90951 13.10715 12923 ft 355 kts 40°
2026-05-06 06:13 55.92810 13.13666 13577 ft 360 kts 40°
2026-05-06 06:13 55.94693 13.16659 14186 ft 364 kts 40°
2026-05-06 06:13 55.96600 13.19685 14765 ft 369 kts 40°
2026-05-06 06:13 55.98533 13.22754 15321 ft 374 kts 40°
2026-05-06 06:14 56.00485 13.25864 15879 ft 379 kts 40°
2026-05-06 06:14 56.02468 13.29033 16431 ft 383 kts 40°
2026-05-06 06:14 56.04442 13.32202 16981 ft 388 kts 40°
2026-05-06 06:14 56.06464 13.35452 17540 ft 393 kts 40°
2026-05-06 06:15 56.08497 13.38725 18103 ft 397 kts 40°
2026-05-06 06:15 56.10575 13.42075 18617 ft 402 kts 40°
2026-05-06 06:15 56.12673 13.45397 19138 ft 405 kts 36°
2026-05-06 06:15 56.14953 13.48412 19654 ft 408 kts 33°
2026-05-06 06:16 56.17263 13.51412 20192 ft 412 kts 33°
2026-05-06 06:16 56.19601 13.54457 20725 ft 416 kts 33°
2026-05-06 06:16 56.21950 13.57529 21233 ft 419 kts 33°
2026-05-06 06:16 56.24313 13.60626 21744 ft 423 kts 33°
2026-05-06 06:17 56.26676 13.63733 22231 ft 427 kts 33°
2026-05-06 06:17 56.29084 13.66904 22751 ft 430 kts 34°
2026-05-06 06:17 56.31505 13.70100 23271 ft 434 kts 34°
2026-05-06 06:17 56.33948 13.73327 23731 ft 437 kts 34°
2026-05-06 06:18 56.36415 13.76592 24136 ft 442 kts 33°
2026-05-06 06:18 56.38904 13.79895 24495 ft 446 kts 33°
2026-05-06 06:18 56.41419 13.83238 24875 ft 450 kts 33°
2026-05-06 06:18 56.43953 13.86612 25253 ft 454 kts 34°
2026-05-06 06:19 56.46477 13.89977 25617 ft 457 kts 34°
2026-05-06 06:19 56.49041 13.93396 25988 ft 461 kts 34°
2026-05-06 06:19 56.51627 13.96849 26350 ft 464 kts 34°
2026-05-06 06:19 56.54233 14.00336 26706 ft 467 kts 34°
2026-05-06 06:20 56.56866 14.03866 27042 ft 470 kts 34°
2026-05-06 06:20 56.59491 14.07398 27451 ft 473 kts 34°
2026-05-06 06:20 56.62151 14.10984 27714 ft 478 kts 33°
2026-05-06 06:20 56.64830 14.14598 28017 ft 482 kts 34°
2026-05-06 06:21 56.67531 14.18254 28348 ft 485 kts 34°
2026-05-06 06:21 56.70241 14.21930 28679 ft 488 kts 34°
2026-05-06 06:21 56.72976 14.25637 29001 ft 491 kts 34°
2026-05-06 06:21 56.75728 14.29372 29313 ft 494 kts 34°
2026-05-06 06:22 56.78502 14.33146 29663 ft 497 kts 34°
2026-05-06 06:22 56.81253 14.36900 29981 ft 500 kts 34°
2026-05-06 06:22 56.84047 14.40721 30285 ft 504 kts 33°
2026-05-06 06:22 56.86868 14.44585 30533 ft 507 kts 33°
2026-05-06 06:23 56.89701 14.48471 30808 ft 510 kts 33°
2026-05-06 06:23 56.92554 14.52385 31150 ft 511 kts 33°
2026-05-06 06:23 56.95384 14.56275 31560 ft 510 kts 33°
2026-05-06 06:23 56.98183 14.60136 31976 ft 510 kts 33°
2026-05-06 06:24 57.01009 14.64045 32381 ft 509 kts 34°
2026-05-06 06:24 57.03839 14.67969 32785 ft 509 kts 34°
2026-05-06 06:24 57.06666 14.71897 33223 ft 509 kts 33°
2026-05-06 06:24 57.09494 14.75833 33581 ft 510 kts 33°
2026-05-06 06:25 57.12324 14.79785 33957 ft 510 kts 33°
2026-05-06 06:25 57.15148 14.83733 34291 ft 510 kts 33°
2026-05-06 06:25 57.20781 14.91622 35051 ft 506 kts 34°
2026-05-06 06:26 57.23576 14.95557 35448 ft 504 kts 36°
2026-05-06 06:26 57.26203 14.99861 35838 ft 503 kts 40°
2026-05-06 06:26 57.28766 15.04269 36200 ft 501 kts 40°
2026-05-06 06:26 57.31292 15.08689 36617 ft 499 kts 40°
2026-05-06 06:27 57.33799 15.13124 36925 ft 498 kts 41°
2026-05-06 06:27 57.38791 15.21972 37008 ft 497 kts 41°
2026-05-06 06:28 57.43761 15.30752 37013 ft 496 kts 40°
2026-05-06 06:28 57.48772 15.39598 37013 ft 496 kts 40°
2026-05-06 06:29 57.53784 15.48475 37036 ft 497 kts 40°
2026-05-06 06:29 57.58770 15.57366 37004 ft 497 kts 40°
2026-05-06 06:30 57.63758 15.66317 37022 ft 498 kts 41°
2026-05-06 06:30 57.68713 15.75242 37028 ft 498 kts 40°
2026-05-06 06:31 57.73716 15.84240 37032 ft 498 kts 41°
2026-05-06 06:31 57.78689 15.93245 37035 ft 498 kts 41°
2026-05-06 06:32 57.83668 16.02306 37023 ft 498 kts 41°
2026-05-06 06:32 57.88635 16.11387 37033 ft 498 kts 41°
2026-05-06 06:33 57.93594 16.20499 36801 ft 498 kts 41°
2026-05-06 06:33 57.96047 16.25016 36541 ft 499 kts 41°
2026-05-06 06:33 57.98524 16.29580 36114 ft 501 kts 41°
2026-05-06 06:33 58.01032 16.34206 35504 ft 502 kts 40°
2026-05-06 06:34 58.03497 16.38770 35394 ft 491 kts 40°
2026-05-06 06:34 58.05904 16.43248 35282 ft 481 kts 40°
2026-05-06 06:34 58.08292 16.47696 35193 ft 485 kts 40°
2026-05-06 06:34 58.10689 16.52156 35077 ft 491 kts 40°
2026-05-06 06:35 58.13127 16.56705 34972 ft 493 kts 40°
2026-05-06 06:35 58.15572 16.61278 34867 ft 494 kts 40°
2026-05-06 06:35 58.18016 16.65863 34770 ft 495 kts 40°
2026-05-06 06:35 58.20466 16.70468 34651 ft 496 kts 40°
2026-05-06 06:36 58.22918 16.75084 34591 ft 497 kts 40°
2026-05-06 06:36 58.25368 16.79706 34481 ft 497 kts 40°
2026-05-06 06:36 58.27834 16.84359 33686 ft 506 kts 40°
2026-05-06 06:36 58.30359 16.89126 32600 ft 516 kts 40°
2026-05-06 06:37 58.32930 16.93996 31569 ft 524 kts 40°
2026-05-06 06:37 58.35522 16.98920 30478 ft 531 kts 40°
2026-05-06 06:37 58.38142 17.03905 29189 ft 540 kts 40°
2026-05-06 06:37 58.40770 17.08929 28623 ft 532 kts 40°
2026-05-06 06:38 58.43364 17.13918 27832 ft 528 kts 40°
2026-05-06 06:38 58.45881 17.18775 27142 ft 524 kts 40°
2026-05-06 06:38 58.48434 17.23707 26349 ft 520 kts 40°
2026-05-06 06:38 58.50269 17.27253 25820 ft 517 kts 40°
2026-05-06 06:39 58.52430 17.31430 25176 ft 513 kts 41°
2026-05-06 06:39 58.54545 17.35523 24569 ft 509 kts 41°
2026-05-06 06:39 58.56991 17.40268 23960 ft 502 kts 41°
2026-05-06 06:39 58.59437 17.45015 23297 ft 496 kts 41°
2026-05-06 06:40 58.61831 17.49677 22598 ft 487 kts 41°
2026-05-06 06:40 58.64187 17.54277 21765 ft 474 kts 41°
2026-05-06 06:40 58.66455 17.58721 21355 ft 461 kts 41°
2026-05-06 06:40 58.68655 17.63029 20985 ft 453 kts 41°
2026-05-06 06:41 58.70854 17.67325 20572 ft 448 kts 40°
2026-05-06 06:41 58.73037 17.71591 20165 ft 444 kts 40°
2026-05-06 06:41 58.75186 17.75806 19766 ft 440 kts 41°
2026-05-06 06:41 58.77315 17.80004 19371 ft 436 kts 41°
2026-05-06 06:42 58.79425 17.84179 18979 ft 432 kts 40°
2026-05-06 06:42 58.81659 17.87945 18597 ft 422 kts 30°
2026-05-06 06:42 58.84125 17.90866 18203 ft 412 kts 20°
2026-05-06 06:42 58.86689 17.93277 17762 ft 408 kts 19°
2026-05-06 06:43 58.89234 17.95672 17319 ft 404 kts 20°
2026-05-06 06:43 58.91748 17.98048 16895 ft 401 kts 20°
2026-05-06 06:43 58.94212 18.00387 16510 ft 397 kts 20°
2026-05-06 06:43 58.96686 18.02737 16085 ft 394 kts 20°
2026-05-06 06:44 58.99134 18.05057 15678 ft 390 kts 20°
2026-05-06 06:44 59.01564 18.07364 15271 ft 387 kts 20°
2026-05-06 06:44 59.03973 18.09662 14886 ft 383 kts 20°
2026-05-06 06:44 59.06362 18.11943 14497 ft 380 kts 21°
2026-05-06 06:45 59.08754 18.14035 14142 ft 373 kts 14°
2026-05-06 06:45 59.11241 18.15266 13772 ft 363 kts
2026-05-06 06:45 59.13728 18.15666 13360 ft 357 kts 358°
2026-05-06 06:45 59.16173 18.15940 12953 ft 355 kts 358°
2026-05-06 06:46 59.18631 18.16229 12544 ft 353 kts 358°
2026-05-06 06:46 59.21072 18.16524 12170 ft 349 kts 359°
2026-05-06 06:46 59.23490 18.16818 11763 ft 346 kts 359°
2026-05-06 06:46 59.25892 18.17101 11408 ft 344 kts 359°
2026-05-06 06:47 59.28276 18.17381 11099 ft 343 kts 360°
2026-05-06 06:47 59.30653 18.17660 10792 ft 340 kts 360°
2026-05-06 06:47 59.32982 18.17935 10484 ft 330 kts
2026-05-06 06:47 59.34491 18.18113 10284 ft 325 kts
2026-05-06 06:48 59.37437 18.18464 9883 ft 316 kts
2026-05-06 06:48 59.39617 18.18741 9553 ft 312 kts
2026-05-06 06:48 59.41779 18.19014 9223 ft 310 kts
2026-05-06 06:48 59.43927 18.19279 8889 ft 308 kts
2026-05-06 06:49 59.45370 18.19454 8668 ft 307 kts
2026-05-06 06:49 59.47499 18.19708 8343 ft 305 kts
2026-05-06 06:49 59.49613 18.19954 8040 ft 302 kts
2026-05-06 06:49 59.51672 18.20194 7706 ft 300 kts
2026-05-06 06:50 59.53747 18.20431 7389 ft 298 kts
2026-05-06 06:50 59.55814 18.20651 7078 ft 296 kts 360°
2026-05-06 06:50 59.57862 18.20705 6768 ft 294 kts 358°
2026-05-06 06:50 59.59909 18.20712 6464 ft 292 kts 358°
2026-05-06 06:51 59.61933 18.20710 6146 ft 290 kts 358°
2026-05-06 06:51 59.63945 18.20708 5823 ft 288 kts 358°
2026-05-06 06:51 59.65942 18.20706 5500 ft 283 kts 358°
2026-05-06 06:51 59.67859 18.20711 5184 ft 269 kts 358°
2026-05-06 06:52 59.69686 18.20722 4868 ft 256 kts 358°
2026-05-06 06:52 59.71432 18.20741 4547 ft 246 kts 358°
2026-05-06 06:52 59.73109 18.20762 4229 ft 236 kts 358°
2026-05-06 06:52 59.74716 18.20664 3908 ft 225 kts 346°
2026-05-06 06:53 59.76047 18.19304 3597 ft 212 kts 312°
2026-05-06 06:53 59.76706 18.16843 3290 ft 204 kts 284°
2026-05-06 06:53 59.76953 18.14118 2968 ft 199 kts 279°
2026-05-06 06:53 59.77133 18.11404 2640 ft 198 kts 278°
2026-05-06 06:54 59.77306 18.08696 2510 ft 198 kts 278°
2026-05-06 06:54 59.77295 18.05965 2506 ft 200 kts 253°
2026-05-06 06:54 59.76677 18.03474 2492 ft 203 kts 240°
2026-05-06 06:54 59.75899 18.01201 2312 ft 193 kts 228°
2026-05-06 06:55 59.74860 17.99703 2167 ft 178 kts 205°
2026-05-06 06:55 59.73699 17.99098 1938 ft 169 kts 192°
2026-05-06 06:55 59.72575 17.98689 1688 ft 159 kts 192°
2026-05-06 06:55 59.71537 17.98311 1496 ft 146 kts 192°
2026-05-06 06:56 59.70551 17.97952 1293 ft 143 kts 192°
2026-05-06 06:56 59.69591 17.97602 1095 ft 142 kts 193°
2026-05-06 06:56 59.68616 17.97246 897 ft 141 kts 192°
2026-05-06 06:56 59.67652 17.96897 707 ft 141 kts 191°
2026-05-06 06:57 59.66688 17.96544 517 ft 141 kts 191°
2026-05-06 06:57 59.65727 17.96199 323 ft 140 kts 190°
2026-05-06 06:57 59.64767 17.95850 133 ft 140 kts 191°
2026-05-06 06:57 59.63928 17.95545 114 ft 94 kts 190°
2026-05-06 06:58 59.63521 17.95391 121 ft 40 kts 194°
2026-05-06 06:58 59.63307 17.95147 121 ft 25 kts 221°
2026-05-06 06:58 59.63254 17.94938 124 ft 14 kts 308°
2026-05-06 06:58 59.63360 17.94932 120 ft 18 kts
2026-05-06 06:59 59.63503 17.94981 118 ft 23 kts 10°
2026-05-06 06:59 59.63676 17.95046 112 ft 27 kts 10°
2026-05-06 06:59 59.63848 17.95109 110 ft 21 kts
2026-05-06 06:59 59.63997 17.95160 109 ft 23 kts 10°
2026-05-06 07:00 59.64151 17.95216 107 ft 19 kts 10°
2026-05-06 07:00 59.64284 17.95265 106 ft 21 kts 11°
2026-05-06 07:00 59.64438 17.95322 105 ft 24 kts 11°
2026-05-06 07:00 59.64594 17.95378 105 ft 23 kts 10°
2026-05-06 07:01 59.64759 17.95439 106 ft 25 kts 11°
2026-05-06 07:01 59.64935 17.95505 110 ft 26 kts
2026-05-06 07:01 59.65107 17.95482 115 ft 25 kts 344°
2026-05-06 07:01 59.65269 17.95398 123 ft 24 kts 345°
2026-05-06 07:02 59.65429 17.95313 127 ft 25 kts 345°